Theta_e
321 322 322 322 321 322 323 322 321 322 322 321 320 320 319 318 318 318 319 317 317 318 319 323 324 323 322 324 324 322 320 320
321 321 322 322 322 322 323 321 322 322 323 321 321 320 321 319 319 318 317 319 318 318 325 325 324 324 325 327 326 324 320 321
321 321 321 321 320 321 322 322 322 322 323 322 322 322 323 320 319 319 318 319 318 325 324 321 320 321 319 323 323 321 320 320
321 322 322 321 321 321 321 321 321 324 324 322 323 323 322 321 319 318 318 318 322 325 322 319 317 318 304 306 319 323 324 323
320 322 322 322 322 321 318 319 321 325 325 324 326 323 322 323 321 319 318 320 323 323 317 316 314 314 301 306 310 323 322 323
321 322 322 321 320 318 317 317 322 325 324 323 324 323 321 323 323 317 317 323 323 319 315 314 314 313 300 306 311 321 323 323
322 323 322 320 317 316 316 318 321 322 322 322 323 322 319 320 318 317 317 317 317 315 314 313 315 316 299 306 317 323 323 322
322 323 321 318 317 315 316 318 319 320 322 323 323 321 320 319 318 317 317 317 317 318 315 315 311 316 300 303 315 324 322 321
321 322 318 318 315 315 314 317 318 321 323 323 322 320 319 319 318 318 318 318 319 317 315 314 316 314 311 302 306 322 323 320
321 320 317 314 316 316 313 316 319 320 320 321 320 319 323 321 319 318 319 318 317 315 313 313 316 314 303 301 301 307 312 321
320 319 314 314 315 316 313 315 317 318 319 319 319 321 321 320 318 318 317 316 316 314 314 316 315 314 314 300 298 299 304 318
318 315 315 313 312 313 315 313 317 319 319 318 319 320 319 319 320 319 318 316 315 316 315 313 313 313 314 314 312 309 304 309
317 317 315 314 313 313 312 315 319 318 319 319 319 319 319 318 317 316 319 318 317 318 316 316 314 313 315 309 311 314 314 310
320 318 315 313 314 313 313 316 320 320 318 319 319 319 318 317 313 309 298 300 303 305 305 312 316 308 299 298 299 298 297 300
316 320 321 316 314 314 315 316 320 320 319 319 319 317 318 315 312 312 312 305 298 298 299 303 306 304 295 296 297 295 297 303
316 317 323 321 316 315 316 316 320 319 319 308 321 320 320 315 312 311 311 309 310 312 298 302 298 296 295 295 294 298 307 307
309 309 311 314 315 313 315 316 319 318 318 319 322 321 321 317 314 311 309 309 310 313 307 301 295 293 292 292 294 313 312 312
305 304 305 307 308 311 309 308 315 318 319 310 314 321 319 317 316 313 310 308 308 311 312 313 303 304 307 307 307 312 313 313
306 303 302 305 303 308 308 304 305 313 316 315 310 320 319 319 318 317 315 311 309 308 311 310 297 315 315 315 313 314 316 317
301 303 299 301 302 305 307 304 302 307 314 314 314 318 319 318 318 318 317 315 313 311 310 308 292 309 318 317 317 317 318 320
Wind_Speed
10 10 10 10 9 9 8 8 9 8 8 8 7 7 6 6 6 6 6 5 3 2 1 1 2 1 0 2 3 3 4 4
10 9 10 9 9 9 8 6 8 7 8 7 7 6 7 6 6 6 6 4 4 2 4 4 3 2 2 2 1 2 1 1
11 11 10 9 8 8 7 6 6 6 7 7 6 5 5 6 6 5 5 4 3 5 5 4 4 4 3 3 3 4 3 3
13 12 12 11 11 9 8 7 6 6 7 6 6 6 6 6 6 5 5 4 4 6 4 4 4 3 6 7 2 4 4 4
14 14 13 11 11 9 8 7 6 6 8 6 7 6 5 6 6 6 4 5 6 6 5 5 3 2 7 5 2 4 5 6
13 12 11 10 7 7 6 7 7 8 8 7 6 6 6 5 5 6 6 4 6 5 4 4 3 2 6 4 6 5 6 8
12 12 12 9 9 8 8 7 7 7 9 8 7 6 6 6 5 6 4 5 4 4 3 4 2 3 8 5 7 5 8 8
11 11 8 9 8 8 9 8 7 9 9 9 7 6 6 6 7 6 3 3 4 5 4 3 3 3 6 6 7 5 8 7
8 11 12 12 8 9 8 8 9 9 8 6 6 6 7 6 6 3 5 5 5 5 5 3 3 3 3 5 9 4 5 6
13 12 9 7 9 10 8 10 8 7 7 7 6 6 5 4 6 4 5 6 6 5 5 4 3 3 5 4 8 7 7 7
13 13 10 7 9 10 11 8 8 7 7 7 7 6 5 5 6 6 4 4 4 4 4 4 3 2 3 5 7 10 10 6
9 12 12 9 7 8 11 8 8 10 7 7 6 6 6 4 3 4 4 4 4 4 4 3 3 3 3 3 3 5 10 9
9 13 12 12 8 7 6 8 9 8 7 6 6 5 6 4 3 2 3 2 4 5 4 4 4 3 3 6 7 5 5 8
6 6 7 7 7 7 7 7 9 10 8 6 6 6 5 4 4 3 6 3 4 6 8 6 2 5 10 10 9 11 15 13
11 4 6 7 7 6 6 7 8 9 9 7 5 5 5 5 4 4 4 2 6 3 6 9 9 8 10 11 12 14 14 10
13 13 5 5 8 7 3 6 7 7 8 11 9 7 6 5 5 5 4 4 3 2 3 3 7 10 11 11 13 11 3 1
14 15 16 13 13 12 10 2 7 8 6 7 6 5 6 7 5 4 4 4 4 4 3 3 6 9 10 9 7 4 6 5
16 14 15 15 15 13 13 12 3 6 7 12 11 8 5 5 5 5 4 4 4 4 4 4 5 4 4 5 6 4 5 5
11 13 13 14 13 13 13 14 9 4 3 5 9 7 7 7 7 7 6 5 5 5 5 6 10 9 9 10 9 9 7 7
10 10 14 13 13 12 13 14 13 7 3 4 5 7 7 7 7 7 6 7 6 6 5 4 9 4 6 7 9 9 10 9
Wind_Direction
132 127 134 128 120 122 128 130 130 128 124 120 127 136 138 140 147 144 153 144 157 200 328 113 144 185 178 286 281 190 203 225
140 134 136 133 132 134 143 138 139 138 138 135 145 162 149 156 156 152 155 153 152 77 99 104 92 23 356 319 216 158 166 45
152 147 141 141 140 143 148 150 146 141 131 154 163 140 136 143 151 164 134 154 133 131 110 111 75 52 24 7 100 104 102 74
154 153 151 156 158 159 162 162 149 148 147 142 155 141 150 158 153 154 156 142 129 116 128 114 77 59 3 354 57 89 74 99
160 161 162 163 170 163 171 169 141 151 135 150 154 148 163 156 168 165 150 158 120 119 136 115 102 60 352 333 84 82 86 93
165 161 164 168 167 157 157 139 148 156 142 153 155 156 165 168 149 145 115 131 125 133 150 126 113 40 353 99 104 87 79 85
171 169 168 159 168 153 147 142 145 144 150 163 166 163 164 150 141 134 130 126 128 141 153 134 113 48 7 106 95 95 98 94
180 168 158 159 175 143 143 149 151 156 164 173 166 162 158 160 160 145 137 132 140 131 126 120 133 89 28 107 99 105 111 104
163 160 168 177 153 147 152 151 171 172 164 154 155 168 163 159 145 137 134 128 125 129 121 123 112 55 60 123 112 97 110 110
163 156 165 163 157 152 153 173 173 154 150 151 151 148 140 146 142 115 122 133 130 138 130 109 95 70 48 113 124 115 112 121
161 159 146 164 162 161 163 189 152 143 144 142 144 141 141 148 135 126 115 127 134 144 144 145 136 83 77 111 129 124 105 105
147 144 157 164 168 160 177 148 153 150 148 140 141 141 140 149 128 132 133 141 140 142 147 154 140 122 115 117 123 104 94 89
144 159 165 171 162 168 151 147 144 149 146 142 142 134 147 151 109 130 165 184 166 162 172 160 155 165 185 164 148 142 128 118
43 91 121 149 156 161 143 152 147 144 140 149 156 153 154 152 155 132 62 64 157 179 161 145 151 140 143 154 150 124 126 132
21 326 150 133 136 153 140 151 144 154 154 154 147 142 147 155 177 163 181 53 41 189 169 168 164 166 151 154 147 140 147 131
24 46 63 96 93 65 78 159 153 163 162 160 164 169 168 162 178 188 169 175 175 171 65 157 193 159 157 143 128 112 142 78
30 40 42 39 51 33 7 235 171 160 159 166 171 173 180 179 170 175 183 187 193 146 114 84 80 79 92 96 165 146 179 193
41 28 28 28 27 23 19 1 209 170 180 183 171 172 167 164 167 174 180 190 192 184 183 169 130 110 157 171 193 194 186 196
41 38 23 27 4 9 16 13 354 348 204 187 194 176 180 185 184 188 191 179 186 198 210 175 178 176 186 190 192 201 203 204
28 32 22 4 355 11 11 11 350 335 336 186 184 203 187 184 191 190 182 187 191 193 211 185 173 215 192 197 201 205 211 213